This demonstration page uses our WeatherBlox Daily Observations layout. Learn more.

Left ArrowRight Arrow

39.08367, -84.50855

Hourly Observations for April 15, 2018

Temp ( °F °C ) Dew Point ( °F °C ) Humidity (%) Winds ( mph kmh ) Pressure ( in mb ) Visibility ( mi km ) Precip ( " mm )
12:53 am 00:53 Cloudy with Rain 61 16.1 60 15.6 97 97 S 6 9 29.83 1010 6 10 0.10 2.54
1:53 am 01:53 Cloudy with Light Rain 61 16.1 60 15.6 97 97 S 6 9 29.80 1009 8 13 0.06 1.52
2:01 am 02:01 Cloudy with Light Rain 61 16.1 60 15.6 97 97 S 6 9 29.80 1009 7 11 0.01 0.25
2:31 am 02:31 Cloudy with Light Rain 61 16.1 60 15.6 97 97 SSE 8 13 29.80 1009 7 11 0.04 1.02
2:45 am 02:45 Cloudy with Light Rain 61 16.1 60 15.6 97 97 SSE 7 11 29.80 1009 8 13 0.05 1.27
2:53 am 02:53 Cloudy with Light Rain 61 16.1 60 15.6 97 97 SSE 7 11 29.78 1008 9 14 0.05 1.27
3:53 am 03:53 Cloudy with Light Rain 61 16.1 60 15.6 97 97 VRB 7 11 29.73 1007 8 13 0.06 1.52
4:53 am 04:53 Cloudy with Light Rain 61 16.1 60 15.6 97 97 SE 7 11 29.70 1006 8 13 0.09 2.29
5:53 am 05:53 Cloudy with Light Rain 62 16.7 60 15.6 93 93 SE 9 15 29.68 1005 10 16 0.01 0.25
6:53 am 06:53 Cloudy with Light Rain 62 16.7 60 15.6 93 93 SSE 13 20 29.66 1004 10 16 0.01 0.25
7:53 am 07:53 Cloudy with Light Rain 62 16.7 60 15.6 93 93 SSE 8 13 29.63 1004 6 10 0.02 0.51
8:53 am 08:53 Cloudy 63 17.2 61 16.1 93 93 SSE 14 22 29.62 1003 10 16 0.01 0.25
9:53 am 09:53 Cloudy with Light Rain 63 17.2 61 16.1 93 93 SSE 13 20 29.60 1002 9 14 0.01 0.25
10:11 am 10:11 Cloudy with Rain 56 13.3 54 12.2 93 93 W 25 41 29.65 1004 3 5 0.01 0.25
10:16 am 10:16 Cloudy with Rain 54 12.2 53 11.7 97 97 W 28 44 29.65 1004 2 3 0.03 0.76
10:28 am 10:28 Cloudy with Rain 54 12.2 53 11.7 97 97 W 17 28 29.65 1004 3 5 0.08 2.03
10:35 am 10:35 Cloudy with Rain 53 11.7 53 11.7 100 100 W 14 22 29.65 1004 3 5 0.10 2.54
10:53 am 10:53 Cloudy with Light Rain 53 11.7 53 11.7 100 100 W 13 20 29.67 1005 5 8 0.12 3.05
11:53 am 11:53 Cloudy with Rain 53 11.7 53 11.7 100 100 N N/A 29.67 1005 4 6 0.10 2.54
12:45 pm 12:45 Cloudy with Rain 53 11.7 53 11.7 100 100 SW 3 6 29.68 1005 4 6 0.13 3.30
12:53 pm 12:53 Cloudy with Heavy Rain 53 11.7 53 11.7 100 100 SW 3 6 29.67 1005 4 6 0.16 4.06
1:41 pm 13:41 Cloudy with Light Rain 53 11.7 53 11.7 100 100 SSW 8 13 29.68 1005 4 6 0.07 1.78
1:53 pm 13:53 Cloudy with Rain 53 11.7 53 11.7 100 100 WSW 3 6 29.66 1004 4 6 0.09 2.29
2:53 pm 14:53 Cloudy with Light Rain 53 11.7 53 11.7 100 100 WSW 8 13 29.65 1004 5 8 0.05 1.27
3:53 pm 15:53 Cloudy with Light Rain 53 11.7 53 11.7 100 100 SSW 8 13 29.66 1004 10 16 0.08 2.03
4:50 pm 16:50 Cloudy with Mist and Fog 50 10 50 10 100 100 W 13 20 29.71 1006 3 5 N/A
4:53 pm 16:53 Cloudy with Mist and Fog 50 10 50 10 100 100 W 14 22 29.66 1004 3 5 N/A
5:23 pm 17:23 Cloudy 50 10 50 10 100 100 W 7 11 29.71 1006 10 16 N/A
5:53 pm 17:53 Cloudy 51 10.6 51 10.6 100 100 WSW 8 13 29.66 1005 10 16 N/A
6:53 pm 18:53 Cloudy 51 10.6 48 8.9 89 89 WSW 9 15 29.69 1005 10 16 N/A
7:53 pm 19:53 Cloudy 50 10 45 7.2 83 83 W 9 15 29.69 1006 10 16 N/A
8:53 pm 20:53 Cloudy 50 10 40 4.4 68 68 W 17 28 29.71 1006 10 16 N/A
9:53 pm 21:53 Cloudy 48 8.9 39 3.9 71 71 W 12 19 29.71 1006 10 16 N/A
10:53 pm 22:53 Cloudy 48 8.9 39 3.9 71 71 WNW 14 22 29.74 1007 10 16 N/A
11:53 pm 23:53 Cloudy with Light Rain 46 7.8 38 3.3 73 73 W 13 20 29.76 1008 10 16 N/A

Powered by AerisWeather